Regional Weather Roundup
Issued by NWS

Home | Current Version | Previous Version | Graphics & Text | Print | Product List | Glossary On
Versions: 1 2 3 4 5 6 7 8 9 10 11 12 13 14 15 16 17 18 19 20 21 22 23 24 25 26 27 28 29 30 31 32 33 34 35 36 37 38 39 40 41 42 43 44 45 46 47 48 49 50
000
ASUS43 KLMK 302010
RWRKY
KENTUCKY REGIONAL WEATHER ROUNDUP
NATIONAL WEATHER SERVICE LOUISVILLE KY
400 PM EDT THU OCT 30 2014

NOTE "FAIR" INDICATES FEW OR NO CLOUDS BELOW 12,000 FEET
WITH NO SIGNIFICANT WEATHER AND/OR OBSTRUCTIONS TO VISIBILITY.

KYZ001>023-026-027-061>063-070>075-302100-
WESTERN AND SOUTH CENTRAL KENTUCKY

CITY           SKY/WX    TMP DP  RH WIND       PRES   REMARKS
PADUCAH        SUNNY     63  39  41 S7        30.05F
HENDERSON      MOSUNNY   61  36  39 W6        30.06F
OWENSBORO      SUNNY     59  39  47 CALM      30.07F
HOPKINSVILLE   SUNNY     60  39  45 N3        30.07F
BOWLING GREEN  MOSUNNY   60  37  42 NW6       30.07F
GLASGOW        SUNNY     60  38  44 W6        30.07F
$$

KYZ024-025-028>034-038-045-046-053-302100-
NORTH CENTRAL KENTUCKY

CITY           SKY/WX    TMP DP  RH WIND       PRES   REMARKS
LOUISVILLE/SDF MOSUNNY   58  35  42 VRB6      30.07F
LOUISVILLE/LOU SUNNY     55  35  47 W6        30.08F
FORT KNOX      PTSUNNY   56  36  47 W5        30.06F
$$

KYZ035>037-039>044-047>052-055>060-089>105-302100-
NORTHEAST KENTUCKY

CITY           SKY/WX    TMP DP  RH WIND       PRES   REMARKS
LEXINGTON      SUNNY     55  38  52 N6        30.08F
COVINGTON      MOSUNNY   53  33  46 SE3       30.07F
FRANKFORT      SUNNY     53  35  50 VRB3      30.07F
$$

KYZ054-064>069-076>088-106>120-302100-
SOUTHEAST KENTUCKY

CITY           SKY/WX    TMP DP  RH WIND       PRES   REMARKS
JACKSON        SUNNY     54  34  46 CALM      30.06F
LONDON         SUNNY     57  36  45 VRB5      30.05F
SOMERSET       SUNNY     54  36  50 CALM      30.08S
MIDDLESBORO    SUNNY     60  39  46 N8        30.03S
MONTICELLO     CLEAR     60  38  44 VRB6      30.08F
$$




USA.gov is the U.S. government's official web portal to all federal, state and local government web resources and services.